Weather History for KIND - February, 2014

Change the Weather History Date:

Tuesday, February 18, 2014

  Actual Average Record
Temperature  
Mean Temperature 38 °F 33 °F  
Max Temperature 49 °F 41 °F 66 °F (1961)
Min Temperature 26 °F 25 °F -11 °F (1936)
Degree Days  
Heating Degree Days 27 32  
Month to date heating degree days 828 618  
Since 1 July heating degree days 4438 3839  
Cooling Degree Days 0 0  
Month to date cooling degree days 0 0  
Year to date cooling degree days 0 0  
Moisture  
Dew Point 26 °F    
Average Humidity 62    
Maximum Humidity 85    
Minimum Humidity 39    
Precipitation  
Precipitation 0.00 in 0.08 in 1.58 in (1871)
Month to date precipitation 2.12 1.47  
Year to date precipitation 4.46 4.13  
Snow  
Snow 0.00 in 0.20 in 4.40 in (1979)
Month to date snowfall 16.2 4.6  
Since 1 July snowfall 52.0 21.2  
Snow Depth 9.00 in    
Sea Level Pressure  
Sea Level Pressure 29.95 in    
Wind  
Wind Speed 10 mph (SSW)    
Max Wind Speed 22 mph    
Max Gust Speed 26 mph    
Visibility 10 miles    
Events      
T = Trace of Precipitation, MM = Missing Value Source: NWS Daily Summary

Daily Weather History Graph

Daily Weather History Graph

Search for Another Location

Airport or City:

Trip Planner

Search our weather history database for the weather conditions in past years. The results will help you decide how hot, cold, wet, or windy it might be!

Date:

Astronomy

Feb. 18, 2014 Rise Set
Actual Time 7:33 AM EST 6:25 PM EST
Civil Twilight 7:06 AM EST 6:52 PM EST
Nautical Twilight 6:34 AM EST 7:24 PM EST
Astronomical Twilight 6:03 AM EST 7:55 PM EST
Moon 10:17 PM EST (2/18) 9:06 AM EST (2/18)
Length of Visible Light 11h 46m
Length of Day
10h 51m
Waning Gibbous, 87% of the Moon is Illuminated
Feb 18
Waning Gibbous
Feb 22
Last Quarter
Mar 1
New
Mar 8
First Quarter
Mar 16
Full

Hourly Weather History & Observations

Time (EST) Temp. Windchill Dew Point Humidity Pressure Visibility Wind Dir Wind Speed Gust Speed Precip Events Conditions
12:54 AM 33.1 °F 21.9 °F 28.9 °F 85% 29.91 in 10.0 mi WSW 18.4 mph - N/A   Clear
1:54 AM 32.0 °F 21.6 °F 28.0 °F 85% 29.94 in 10.0 mi WSW 15.0 mph - N/A   Clear
2:54 AM 32.0 °F 21.2 °F 27.0 °F 82% 29.96 in 10.0 mi WSW 16.1 mph - N/A   Clear
3:54 AM 32.0 °F 21.2 °F 27.0 °F 82% 29.99 in 10.0 mi WSW 16.1 mph - N/A   Clear
4:54 AM 30.9 °F 20.2 °F 26.1 °F 82% 30.02 in 10.0 mi WSW 15.0 mph - N/A   Clear
5:54 AM 28.9 °F 21.9 °F 24.1 °F 82% 30.04 in 10.0 mi WSW 6.9 mph - N/A   Clear
6:54 AM 28.0 °F 20.0 °F 23.0 °F 81% 30.06 in 10.0 mi WSW 8.1 mph - N/A   Clear
7:54 AM 26.1 °F 18.4 °F 21.9 °F 84% 30.07 in 10.0 mi SW 6.9 mph - N/A   Clear
8:54 AM 28.9 °F 21.9 °F 24.1 °F 82% 30.09 in 10.0 mi SSW 6.9 mph - N/A   Clear
9:54 AM 33.1 °F 26.9 °F 27.0 °F 78% 30.09 in 10.0 mi South 6.9 mph - N/A   Partly Cloudy
10:54 AM 37.9 °F 30.9 °F 27.0 °F 65% 30.07 in 10.0 mi South 10.4 mph - N/A   Mostly Cloudy
11:54 AM 41.0 °F 36.4 °F 27.0 °F 57% 30.04 in 10.0 mi South 6.9 mph - N/A   Mostly Cloudy
12:54 PM 44.1 °F 39.0 °F 27.0 °F 51% 30.01 in 10.0 mi South 9.2 mph - N/A   Mostly Cloudy
1:54 PM 46.9 °F - 26.1 °F 44% 29.98 in 10.0 mi South 8.1 mph - N/A   Mostly Cloudy
2:54 PM 48.0 °F - 26.1 °F 42% 29.94 in 10.0 mi South 13.8 mph - N/A   Overcast
3:54 PM 48.0 °F - 24.1 °F 39% 29.89 in 10.0 mi South 15.0 mph - N/A   Mostly Cloudy
4:54 PM 48.0 °F - 25.0 °F 41% 29.87 in 10.0 mi South 11.5 mph - N/A   Mostly Cloudy
5:54 PM 46.0 °F 41.9 °F 26.1 °F 46% 29.85 in 10.0 mi South 8.1 mph - N/A   Mostly Cloudy
6:54 PM 44.1 °F 38.1 °F 26.1 °F 49% 29.84 in 10.0 mi SSE 11.5 mph - N/A   Scattered Clouds
7:54 PM 44.1 °F 39.0 °F 26.1 °F 49% 29.83 in 10.0 mi South 9.2 mph - N/A   Mostly Cloudy
8:54 PM 39.9 °F 35.1 °F 28.0 °F 63% 29.83 in 10.0 mi SSW 6.9 mph - N/A   Mostly Cloudy
9:54 PM 42.1 °F 38.4 °F 28.0 °F 58% 29.82 in 10.0 mi SW 5.8 mph - N/A   Mostly Cloudy
10:54 PM 39.9 °F 35.1 °F 28.0 °F 63% 29.80 in 10.0 mi SSW 6.9 mph - N/A   Mostly Cloudy
11:54 PM 39.9 °F 34.5 °F 28.0 °F 63% 29.77 in 10.0 mi SSW 8.1 mph - N/A   Mostly Cloudy